Location: Fuglau
(48.6333°N, 15.5500°E)
Time: 15:13:58
(UTC+00:00)

ADEOS Rocket - Pass Details

Date: 27 February 2020
Orbit: 859 x 1306 km, 98.7° (Epoch: 27 March)

Event Time Altitude Azimuth Distance (km) Brightness Sun altitude
Rises 18:04:39 0° 13° (NNE) 4,288 6.3 -15.2°
Reaches altitude 10° 18:07:21 10° 13° (NNE) 3,330 5.7 -15.6°
Maximum altitude 18:15:11 84° 287° (WNW) 1,313 3.7 -16.9°
Drops below altitude 10° 18:22:46 10° 201° (SSW) 3,227 5.9 -18.1°
Sets 18:25:21 0° 201° (SSW) 4,149 6.4 -18.6°
